OE7AJT-13 Weather Reports


time (UTC)temp
F
wind
direction
speed
knots
gust
knots
rain 1hr
in
rain 24hr
in
rain mn
in
humidity
%
barometer
mb
20240614112930 66 0.0 0.0 0.00 0.00 0.00 45 1018.0
20240614110925 65 0.0 0.0 0.00 0.00 0.00 45 1018.0
20240614105922 65 0.0 0.0 0.00 0.00 0.00 44 1018.0
20240614104919 65 0.0 0.0 0.00 0.00 0.00 44 1018.0
20240614103917 65 0.0 0.0 0.00 0.00 0.00 44 1018.0
20240614101912 65 0.0 0.0 0.00 0.00 0.00 41 1018.0
20240614095907 65 0.0 0.0 0.00 0.00 0.00 45 1018.0
20240614094904 65 0.0 0.0 0.00 0.00 0.00 44 1018.0
20240614093902 65 0.0 0.0 0.00 0.00 0.00 47 1018.0
20240614092859 64 0.0 0.0 0.00 0.00 0.00 47 1018.0
20240614091856 63 0.0 0.0 0.00 0.00 0.00 47 1018.0
20240614090854 63 0.0 0.0 0.00 0.00 0.00 48 1018.0
20240614084849 61 0.0 0.0 0.00 0.00 0.00 49 1018.0
20240614081841 61 0.0 0.0 0.00 0.00 0.00 53 1018.0
20240614073831 57 0.0 0.0 0.00 0.00 0.00 56 1018.0
20240614072828 57 0.0 0.0 0.00 0.00 0.00 56 1018.0
20240614071826 57 0.0 0.0 0.00 0.00 0.00 57 1018.0
20240614070823 56 0.0 0.0 0.00 0.00 0.00 57 1018.0
20240614061810 53 0.0 0.0 0.00 0.00 0.00 61 1018.0
20240614060808 53 0.0 0.0 0.00 0.00 0.00 62 1018.0
20240614055805 52 0.0 0.0 0.00 0.00 0.00 62 1019.0
20240614053801 51 0.0 0.0 0.00 0.00 0.00 63 1019.0
20240614052757 51 0.0 0.0 0.00 0.00 0.00 64 1019.0
20240614051755 50 0.0 0.0 0.00 0.00 0.00 64 1019.0
20240614050752 50 0.0 0.0 0.00 0.00 0.00 65 1019.0
20240614044747 49 0.0 0.0 0.00 0.00 0.00 65 1019.0
20240614043745 49 0.0 0.0 0.00 0.00 0.00 65 1019.0
20240614041739 49 0.0 0.0 0.00 0.00 0.00 65 1019.0
20240614035734 48 0.0 0.0 0.00 0.00 0.00 66 1019.0
20240614032727 48 0.0 0.0 0.00 0.00 0.00 66 1019.0
20240614025719 48 0.0 0.0 0.00 0.00 0.00 66 1019.0
20240614023714 48 0.0 0.0 0.00 0.00 0.00 65 1019.0
20240614022711 48 0.0 0.0 0.00 0.00 0.00 65 1019.0
20240614020706 49 0.0 0.0 0.00 0.00 0.00 65 1019.0
20240614015704 49 0.0 0.0 0.00 0.00 0.00 64 1019.0
20240614013658 49 0.0 0.0 0.00 0.00 0.00 63 1020.0
20240614012656 49 0.0 0.0 0.00 0.00 0.00 63 1020.0
20240614010651 49 0.0 0.0 0.00 0.00 0.00 64 1020.0
20240614005648 49 0.0 0.0 0.00 0.00 0.00 63 1020.0
20240614001638 49 0.0 0.0 0.00 0.00 0.00 63 1020.0
20240613235633 49 0.0 0.0 0.00 0.00 0.00 62 1020.0
20240613231622 50 0.0 0.0 0.00 0.00 0.00 61 1020.0
20240613223612 50 0.0 0.0 0.00 0.00 0.00 60 1020.0
20240613222610 50 0.0 0.0 0.00 0.00 0.00 59 1020.0
20240613221607 51 0.0 0.0 0.00 0.00 0.00 59 1020.0
20240613220605 51 0.0 0.0 0.00 0.00 0.00 59 1020.0
20240613215602 51 0.0 0.0 0.00 0.00 0.00 58 1021.0
20240613214600 51 0.0 0.0 0.00 0.00 0.00 58 1020.0
20240613214559 51 0.0 0.0 0.00 0.00 0.00 58 1020.0
20240613213557 51 0.0 0.0 0.00 0.00 0.00 58 1021.0
20240613212554 51 0.0 0.0 0.00 0.00 0.00 57 1021.0
20240613211552 52 0.0 0.0 0.00 0.00 0.00 57 1021.0
20240613210549 52 0.0 0.0 0.00 0.00 0.00 57 1021.0
20240613205547 52 0.0 0.0 0.00 0.00 0.00 56 1021.0
20240613204544 53 0.0 0.0 0.00 0.00 0.00 56 1021.0
20240613202539 54 0.0 0.0 0.00 0.00 0.00 55 1021.0
20240613201536 54 0.0 0.0 0.00 0.00 0.00 53 1021.0
20240613200534 55 0.0 0.0 0.00 0.00 0.00 52 1021.0
20240613195531 56 0.0 0.0 0.00 0.00 0.00 51 1021.0
20240613194529 57 0.0 0.0 0.00 0.00 0.00 50 1021.0
20240613191521 61 0.0 0.0 0.00 0.00 0.00 45 1021.0
20240613190518 63 0.0 0.0 0.00 0.00 0.00 44 1021.0
20240613181506 87 0.0 0.0 0.00 0.00 0.00 27 1020.0
20240613180503 90 0.0 0.0 0.00 0.00 0.00 26 1020.0
20240613175500 92 0.0 0.0 0.00 0.00 0.00 25 1020.0
20240613174458 94 0.0 0.0 0.00 0.00 0.00 24 1020.0
20240613173455 94 0.0 0.0 0.00 0.00 0.00 23 1020.0
20240613172453 93 0.0 0.0 0.00 0.00 0.00 24 1020.0
20240613171450 89 0.0 0.0 0.00 0.00 0.00 27 1020.0
20240613170448 81 0.0 0.0 0.00 0.00 0.00 34 1021.0
20240613165445 71 0.0 0.0 0.00 0.00 0.00 43 1021.0
20240613163441 65 0.0 0.0 0.00 0.00 0.00 48 1021.0
20240613162437 62 0.0 0.0 0.00 0.00 0.00 52 1021.0
20240613161435 60 0.0 0.0 0.00 0.00 0.00 54 1021.0
20240613155430 59 0.0 0.0 0.00 0.00 0.00 54 1021.0
20240613154427 59 0.0 0.0 0.00 0.00 0.00 55 1021.0
20240613153425 59 0.0 0.0 0.00 0.00 0.00 55 1021.0
20240613152422 58 0.0 0.0 0.00 0.00 0.00 55 1021.0
20240613151420 58 0.0 0.0 0.00 0.00 0.00 56 1021.0
20240613142407 59 0.0 0.0 0.00 0.00 0.00 45 1021.0
20240613140401 63 0.0 0.0 0.00 0.00 0.00 40 1020.0
20240613135359 68 0.0 0.0 0.00 0.00 0.00 40 1020.0
20240613134356 70 0.0 0.0 0.00 0.00 0.00 38 1020.0
20240613133354 71 0.0 0.0 0.00 0.00 0.00 37 1020.0
20240613124341 64 0.0 0.0 0.00 0.00 0.00 44 1020.0
20240613123338 64 0.0 0.0 0.00 0.00 0.00 43 1020.0